Time,TemperatureF,DewpointF,PressureIn,WindDirection,WindDirectionDegrees,WindSpeedMPH,WindSpeedGustMPH,Humidity,HourlyPrecipIn,Conditions,Clouds,dailyrainin,SoftwareType,DateUTC
2013-11-19 00:00:00,46.9,29.8,29.92,NW,315,3.0,7.0,51,0.00,,,0.00,meteohub,2013-11-19 05:00:00,
2013-11-19 00:01:00,46.8,29.1,29.92,WNW,282,3.0,7.0,50,0.00,,,0.00,meteohub,2013-11-19 05:01:00,
2013-11-19 00:02:00,46.8,29.1,29.92,NNW,327,4.0,7.0,50,0.00,,,0.00,meteohub,2013-11-19 05:02:00,
2013-11-19 00:04:00,46.8,29.1,29.92,NW,304,6.0,7.0,50,0.00,,,0.00,meteohub,2013-11-19 05:04:00,
2013-11-19 00:05:00,46.8,29.1,29.92,NW,307,5.0,9.0,50,0.00,,,0.00,meteohub,2013-11-19 05:05:00,
2013-11-19 00:07:00,46.8,28.6,29.92,NW,317,7.0,9.0,49,0.00,,,0.00,meteohub,2013-11-19 05:07:00,
2013-11-19 00:12:00,46.6,28.4,29.92,NW,311,7.0,9.0,49,0.00,,,0.00,meteohub,2013-11-19 05:12:00,
2013-11-19 00:17:00,46.4,28.2,29.92,NW,309,2.0,10.0,49,0.00,,,0.00,meteohub,2013-11-19 05:17:00,
2013-11-19 00:23:00,46.2,28.0,29.92,NW,318,3.0,10.0,49,0.00,,,0.00,meteohub,2013-11-19 05:23:00,
2013-11-19 00:28:00,46.0,27.9,29.92,WNW,288,8.0,10.0,49,0.00,,,0.00,meteohub,2013-11-19 05:28:00,
2013-11-19 00:33:00,45.9,27.9,29.92,WNW,288,5.0,8.0,49,0.00,,,0.00,meteohub,2013-11-19 05:33:00,
2013-11-19 00:38:00,45.9,27.9,29.92,NW,313,6.0,9.0,49,0.00,,,0.00,meteohub,2013-11-19 05:38:00,
2013-11-19 00:43:00,45.9,28.2,29.92,WNW,301,7.0,11.0,50,0.00,,,0.00,meteohub,2013-11-19 05:43:00,
2013-11-19 00:48:00,45.9,28.2,29.93,NW,312,8.0,11.0,50,0.00,,,0.00,meteohub,2013-11-19 05:48:00,
2013-11-19 00:53:00,45.7,28.0,29.92,WNW,283,1.0,10.0,50,0.00,,,0.00,meteohub,2013-11-19 05:53:00,
2013-11-19 00:58:00,45.7,28.6,29.93,NW,306,4.0,9.0,51,0.00,,,0.00,meteohub,2013-11-19 05:58:00,
2013-11-19 01:03:00,45.9,28.8,29.93,NW,309,2.0,9.0,51,0.00,,,0.00,meteohub,2013-11-19 06:03:00,
2013-11-19 01:08:00,45.9,28.8,29.93,NW,314,3.0,12.0,51,0.00,,,0.00,meteohub,2013-11-19 06:08:00,
2013-11-19 01:13:00,45.9,28.8,29.93,WNW,297,6.0,12.0,51,0.00,,,0.00,meteohub,2013-11-19 06:13:00,
2013-11-19 01:19:00,45.9,28.8,29.93,West,278,3.0,10.0,51,0.00,,,0.00,meteohub,2013-11-19 06:19:00,
2013-11-19 01:24:00,45.9,28.8,29.93,WNW,294,4.0,11.0,51,0.00,,,0.00,meteohub,2013-11-19 06:24:00,
2013-11-19 01:29:00,45.9,28.8,29.93,NW,317,3.0,11.0,51,0.00,,,0.00,meteohub,2013-11-19 06:29:00,
2013-11-19 01:34:00,45.9,28.8,29.93,WNW,285,3.0,12.0,51,0.00,,,0.00,meteohub,2013-11-19 06:34:00,
2013-11-19 01:39:00,45.9,28.8,29.93,NNW,339,9.0,12.0,51,0.00,,,0.00,meteohub,2013-11-19 06:39:00,
2013-11-19 01:44:00,46.0,28.9,29.93,NW,314,10.0,16.0,51,0.00,,,0.00,meteohub,2013-11-19 06:44:00,
2013-11-19 01:49:00,46.0,28.9,29.93,NW,312,7.0,16.0,51,0.00,,,0.00,meteohub,2013-11-19 06:49:00,
2013-11-19 01:54:00,46.0,28.9,29.94,SW,233,8.0,16.0,51,0.00,,,0.00,meteohub,2013-11-19 06:54:00,
2013-11-19 01:59:00,46.0,28.9,29.94,NNW,334,3.0,14.0,51,0.00,,,0.00,meteohub,2013-11-19 06:59:00,
2013-11-19 02:04:00,46.0,28.9,29.94,NW,323,4.0,14.0,51,0.00,,,0.00,meteohub,2013-11-19 07:04:00,
2013-11-19 02:09:00,45.9,28.8,29.94,WNW,294,8.0,13.0,51,0.00,,,0.00,meteohub,2013-11-19 07:09:00,
2013-11-19 02:14:00,45.7,28.6,29.94,NW,304,6.0,12.0,51,0.00,,,0.00,meteohub,2013-11-19 07:14:00,
2013-11-19 02:19:00,45.5,28.9,29.94,WNW,301,3.0,12.0,52,0.00,,,0.00,meteohub,2013-11-19 07:19:00,
2013-11-19 02:24:00,45.3,28.8,29.94,NW,318,5.0,12.0,52,0.00,,,0.00,meteohub,2013-11-19 07:24:00,
2013-11-19 02:30:00,45.3,28.8,29.95,West,266,2.0,12.0,52,0.00,,,0.00,meteohub,2013-11-19 07:30:00,
2013-11-19 02:35:00,45.7,29.1,29.94,WNW,285,3.0,13.0,52,0.00,,,0.00,meteohub,2013-11-19 07:35:00,
2013-11-19 02:40:00,45.7,29.1,29.95,NNW,336,1.0,13.0,52,0.00,,,0.00,meteohub,2013-11-19 07:40:00,
2013-11-19 02:45:00,45.3,28.8,29.95,NW,312,7.0,14.0,52,0.00,,,0.00,meteohub,2013-11-19 07:45:00,
2013-11-19 02:50:00,45.1,28.9,29.95,NNW,342,6.0,14.0,53,0.00,,,0.00,meteohub,2013-11-19 07:50:00,
2013-11-19 02:55:00,45.1,28.6,29.95,WNW,297,7.0,10.0,52,0.00,,,0.00,meteohub,2013-11-19 07:55:00,
2013-11-19 03:00:00,45.0,28.4,29.96,NNW,333,4.0,18.0,52,0.00,,,0.00,meteohub,2013-11-19 08:00:00,
2013-11-19 03:05:00,44.6,28.0,29.96,NW,323,8.0,18.0,52,0.00,,,0.00,meteohub,2013-11-19 08:05:00,
2013-11-19 03:10:00,44.4,28.4,29.97,NW,314,4.0,13.0,53,0.00,,,0.00,meteohub,2013-11-19 08:10:00,
2013-11-19 03:15:00,44.2,28.2,29.97,NW,323,3.0,12.0,53,0.00,,,0.00,meteohub,2013-11-19 08:15:00,
2013-11-19 03:20:00,44.2,28.6,29.98,NW,319,2.0,12.0,54,0.00,,,0.00,meteohub,2013-11-19 08:20:00,
2013-11-19 03:25:00,44.1,28.4,29.98,ENE,60,3.0,10.0,54,0.00,,,0.00,meteohub,2013-11-19 08:25:00,
2013-11-19 03:31:00,43.9,27.9,29.99,NNW,341,9.0,10.0,53,0.00,,,0.00,meteohub,2013-11-19 08:31:00,
2013-11-19 03:36:00,43.5,27.5,29.99,NW,318,9.0,16.0,53,0.00,,,0.00,meteohub,2013-11-19 08:36:00,
2013-11-19 03:41:00,43.3,27.9,29.99,West,260,8.0,16.0,54,0.00,,,0.00,meteohub,2013-11-19 08:41:00,
2013-11-19 03:46:00,43.2,28.0,29.99,NW,326,2.0,16.0,55,0.00,,,0.00,meteohub,2013-11-19 08:46:00,
2013-11-19 03:51:00,43.2,28.0,29.99,NNW,342,6.0,14.0,55,0.00,,,0.00,meteohub,2013-11-19 08:51:00,
2013-11-19 03:56:00,43.2,28.6,30.00,NW,309,3.0,14.0,56,0.00,,,0.00,meteohub,2013-11-19 08:56:00,
2013-11-19 04:01:00,43.2,28.6,30.00,NW,314,4.0,13.0,56,0.00,,,0.00,meteohub,2013-11-19 09:01:00,
2013-11-19 04:06:00,43.0,28.8,30.00,West,264,3.0,12.0,57,0.00,,,0.00,meteohub,2013-11-19 09:06:00,
2013-11-19 04:11:00,43.0,28.8,30.01,NW,318,10.0,12.0,57,0.00,,,0.00,meteohub,2013-11-19 09:11:00,
2013-11-19 04:16:00,43.0,29.3,30.01,West,273,2.0,10.0,58,0.00,,,0.00,meteohub,2013-11-19 09:16:00,
2013-11-19 04:21:00,42.6,28.0,30.02,NE,34,2.0,11.0,56,0.00,,,0.00,meteohub,2013-11-19 09:21:00,
2013-11-19 04:26:00,42.4,27.5,30.02,WNW,300,6.0,12.0,55,0.00,,,0.00,meteohub,2013-11-19 09:26:00,
2013-11-19 04:31:00,42.4,27.5,30.02,ENE,60,2.0,12.0,55,0.00,,,0.00,meteohub,2013-11-19 09:31:00,
2013-11-19 04:36:00,42.3,27.7,30.02,NNW,336,6.0,12.0,56,0.00,,,0.00,meteohub,2013-11-19 09:36:00,
2013-11-19 04:41:00,42.3,27.7,30.03,NNW,342,3.0,13.0,56,0.00,,,0.00,meteohub,2013-11-19 09:41:00,
2013-11-19 04:46:00,42.1,27.5,30.03,WNW,294,11.0,13.0,56,0.00,,,0.00,meteohub,2013-11-19 09:46:00,
2013-11-19 04:51:00,42.1,27.9,30.03,NW,305,2.0,13.0,57,0.00,,,0.00,meteohub,2013-11-19 09:51:00,
2013-11-19 04:56:00,41.9,27.3,30.04,NW,316,7.0,12.0,56,0.00,,,0.00,meteohub,2013-11-19 09:56:00,
2013-11-19 05:02:00,41.9,27.0,30.04,NW,326,2.0,12.0,55,0.00,,,0.00,meteohub,2013-11-19 10:02:00,
2013-11-19 05:07:00,41.9,26.4,30.04,NW,321,9.0,9.0,54,0.00,,,0.00,meteohub,2013-11-19 10:07:00,
2013-11-19 05:12:00,41.7,26.2,30.04,NNW,346,2.0,12.0,54,0.00,,,0.00,meteohub,2013-11-19 10:12:00,
2013-11-19 05:17:00,41.7,26.2,30.04,WNW,284,3.0,12.0,54,0.00,,,0.00,meteohub,2013-11-19 10:17:00,
2013-11-19 05:22:00,41.7,26.2,30.04,ESE,103,1.0,12.0,54,0.00,,,0.00,meteohub,2013-11-19 10:22:00,
2013-11-19 05:27:00,41.7,26.2,30.05,West,278,1.0,9.0,54,0.00,,,0.00,meteohub,2013-11-19 10:27:00,
2013-11-19 05:32:00,41.5,26.1,30.05,North,353,3.0,8.0,54,0.00,,,0.00,meteohub,2013-11-19 10:32:00,
2013-11-19 05:37:00,41.5,26.1,30.05,NW,323,2.0,7.0,54,0.00,,,0.00,meteohub,2013-11-19 10:37:00,
2013-11-19 05:42:00,41.5,25.7,30.05,WNW,288,3.0,8.0,53,0.00,,,0.00,meteohub,2013-11-19 10:42:00,
2013-11-19 05:47:00,41.5,25.7,30.05,NW,321,3.0,14.0,53,0.00,,,0.00,meteohub,2013-11-19 10:47:00,
2013-11-19 05:52:00,41.7,25.9,30.06,NNW,339,6.0,14.0,53,0.00,,,0.00,meteohub,2013-11-19 10:52:00,
2013-11-19 05:57:00,41.7,26.2,30.06,WNW,283,3.0,14.0,54,0.00,,,0.00,meteohub,2013-11-19 10:57:00,
2013-11-19 06:02:00,41.5,26.1,30.06,West,280,7.0,11.0,54,0.00,,,0.00,meteohub,2013-11-19 11:02:00,
2013-11-19 06:07:00,41.5,26.1,30.07,North,1,2.0,9.0,54,0.00,,,0.00,meteohub,2013-11-19 11:07:00,
2013-11-19 06:12:00,41.5,26.1,30.07,NW,323,5.0,10.0,54,0.00,,,0.00,meteohub,2013-11-19 11:12:00,
2013-11-19 06:17:00,41.4,25.9,30.08,NW,318,5.0,10.0,54,0.00,,,0.00,meteohub,2013-11-19 11:17:00,
2013-11-19 06:22:00,41.4,25.9,30.08,NNW,338,3.0,13.0,54,0.00,,,0.00,meteohub,2013-11-19 11:22:00,
2013-11-19 06:27:00,41.4,25.9,30.08,NNW,345,4.0,13.0,54,0.00,,,0.00,meteohub,2013-11-19 11:27:00,
2013-11-19 06:32:00,41.2,25.9,30.09,NW,316,1.0,13.0,54,0.00,,,0.00,meteohub,2013-11-19 11:32:00,
2013-11-19 06:37:00,41.2,25.9,30.09,NNW,341,1.0,10.0,54,0.00,,,0.00,meteohub,2013-11-19 11:37:00,
2013-11-19 06:42:00,41.2,25.9,30.09,ESE,116,0.0,7.0,54,0.00,,,0.00,meteohub,2013-11-19 11:42:00,
2013-11-19 06:47:00,41.0,26.1,30.09,WNW,291,7.0,7.0,55,0.00,,,0.00,meteohub,2013-11-19 11:47:00,
2013-11-19 06:52:00,41.0,25.7,30.09,NW,313,1.0,14.0,54,0.00,,,0.00,meteohub,2013-11-19 11:52:00,
2013-11-19 06:57:00,41.0,26.1,30.09,NW,316,8.0,14.0,55,0.00,,,0.00,meteohub,2013-11-19 11:57:00,
2013-11-19 07:02:00,41.2,25.9,30.10,NW,319,2.0,9.0,54,0.00,,,0.00,meteohub,2013-11-19 12:02:00,
2013-11-19 07:07:00,41.0,26.1,30.10,WNW,294,6.0,13.0,55,0.00,,,0.00,meteohub,2013-11-19 12:07:00,
2013-11-19 07:12:00,40.8,25.9,30.10,NNE,20,2.0,13.0,55,0.00,,,0.00,meteohub,2013-11-19 12:12:00,
2013-11-19 07:17:00,40.8,25.9,30.10,NW,326,0.0,9.0,55,0.00,,,0.00,meteohub,2013-11-19 12:17:00,
2013-11-19 07:22:00,40.8,25.9,30.10,WNW,294,1.0,10.0,55,0.00,,,0.00,meteohub,2013-11-19 12:22:00,
2013-11-19 07:27:00,40.8,25.9,30.11,WNW,297,2.0,10.0,55,0.00,,,0.00,meteohub,2013-11-19 12:27:00,
2013-11-19 07:32:00,40.8,25.9,30.11,NNW,329,2.0,4.0,55,0.00,,,0.00,meteohub,2013-11-19 12:32:00,
2013-11-19 07:37:00,41.2,26.2,30.11,WNW,294,6.0,6.0,55,0.00,,,0.00,meteohub,2013-11-19 12:37:00,
2013-11-19 07:42:00,41.4,26.4,30.12,NE,47,2.0,8.0,55,0.00,,,0.00,meteohub,2013-11-19 12:42:00,
2013-11-19 07:47:00,41.7,26.8,30.12,North,351,2.0,9.0,55,0.00,,,0.00,meteohub,2013-11-19 12:47:00,
2013-11-19 07:52:00,42.3,27.3,30.12,NW,320,2.0,9.0,55,0.00,,,0.00,meteohub,2013-11-19 12:52:00,
2013-11-19 07:57:00,42.4,27.5,30.12,NNW,340,2.0,6.0,55,0.00,,,0.00,meteohub,2013-11-19 12:57:00,
2013-11-19 08:02:00,42.8,27.3,30.12,NW,320,2.0,6.0,54,0.00,,,0.00,meteohub,2013-11-19 13:02:00,
2013-11-19 08:07:00,43.0,27.5,30.13,NW,320,0.0,7.0,54,0.00,,,0.00,meteohub,2013-11-19 13:07:00,
2013-11-19 08:12:00,43.2,27.7,30.13,NW,313,4.0,7.0,54,0.00,,,0.00,meteohub,2013-11-19 13:12:00,
2013-11-19 08:17:00,43.3,27.3,30.13,ENE,77,2.0,7.0,53,0.00,,,0.00,meteohub,2013-11-19 13:17:00,
2013-11-19 08:22:00,43.2,27.7,30.14,NW,309,4.0,5.0,54,0.00,,,0.00,meteohub,2013-11-19 13:22:00,
2013-11-19 08:27:00,43.0,27.0,30.14,NW,307,2.0,8.0,53,0.00,,,0.00,meteohub,2013-11-19 13:27:00,
2013-11-19 08:32:00,43.0,27.0,30.14,NW,317,4.0,8.0,53,0.00,,,0.00,meteohub,2013-11-19 13:32:00,
2013-11-19 08:37:00,42.6,27.1,30.14,NE,34,7.0,9.0,54,0.00,,,0.00,meteohub,2013-11-19 13:37:00,
2013-11-19 08:42:00,42.6,27.1,30.15,NNW,347,1.0,11.0,54,0.00,,,0.00,meteohub,2013-11-19 13:42:00,
2013-11-19 08:47:00,42.6,27.1,30.15,North,349,5.0,11.0,54,0.00,,,0.00,meteohub,2013-11-19 13:47:00,
2013-11-19 08:52:00,42.6,27.1,30.15,ENE,77,3.0,12.0,54,0.00,,,0.00,meteohub,2013-11-19 13:52:00,
2013-11-19 08:57:00,42.8,27.3,30.16,NW,315,8.0,12.0,54,0.00,,,0.00,meteohub,2013-11-19 13:57:00,
2013-11-19 09:02:00,43.2,27.1,30.17,NW,316,7.0,12.0,53,0.00,,,0.00,meteohub,2013-11-19 14:02:00,
2013-11-19 09:07:00,43.0,27.0,30.17,NW,309,2.0,11.0,53,0.00,,,0.00,meteohub,2013-11-19 14:07:00,
2013-11-19 09:12:00,43.0,27.5,30.17,NNW,333,2.0,11.0,54,0.00,,,0.00,meteohub,2013-11-19 14:12:00,
2013-11-19 09:17:00,43.0,27.0,30.17,NW,309,2.0,11.0,53,0.00,,,0.00,meteohub,2013-11-19 14:17:00,
2013-11-19 09:22:00,43.2,26.8,30.17,NNW,335,3.0,8.0,52,0.00,,,0.00,meteohub,2013-11-19 14:22:00,
2013-11-19 09:27:00,42.8,26.8,30.17,NNW,341,4.0,6.0,53,0.00,,,0.00,meteohub,2013-11-19 14:27:00,
2013-11-19 09:31:00,42.6,26.2,30.18,NE,56,4.0,8.0,52,0.00,,,0.00,meteohub,2013-11-19 14:31:00,
2013-11-19 09:37:00,42.6,27.1,30.18,East,82,2.0,8.0,54,0.00,,,0.00,meteohub,2013-11-19 14:37:00,
2013-11-19 09:42:00,43.2,27.7,30.18,NNW,338,4.0,10.0,54,0.00,,,0.00,meteohub,2013-11-19 14:42:00,
2013-11-19 09:47:00,43.3,27.3,30.18,NNE,15,1.0,10.0,53,0.00,,,0.00,meteohub,2013-11-19 14:47:00,
2013-11-19 09:52:00,43.2,26.8,30.18,WNW,294,2.0,10.0,52,0.00,,,0.00,meteohub,2013-11-19 14:52:00,
2013-11-19 09:57:00,43.2,27.1,30.18,NW,313,3.0,9.0,53,0.00,,,0.00,meteohub,2013-11-19 14:57:00,
2013-11-19 10:02:00,43.0,27.0,30.18,NW,316,3.0,12.0,53,0.00,,,0.00,meteohub,2013-11-19 15:02:00,
2013-11-19 10:07:00,43.0,27.0,30.18,NW,304,4.0,12.0,53,0.00,,,0.00,meteohub,2013-11-19 15:07:00,
2013-11-19 10:12:00,42.4,26.6,30.19,NNW,332,5.0,12.0,53,0.00,,,0.00,meteohub,2013-11-19 15:12:00,
2013-11-19 10:17:00,42.4,26.6,30.19,NNW,330,5.0,11.0,53,0.00,,,0.00,meteohub,2013-11-19 15:17:00,
2013-11-19 10:22:00,42.4,26.1,30.19,NW,308,7.0,11.0,52,0.00,,,0.00,meteohub,2013-11-19 15:22:00,
2013-11-19 10:27:00,42.4,26.1,30.19,NW,326,1.0,11.0,52,0.00,,,0.00,meteohub,2013-11-19 15:27:00,
2013-11-19 10:32:00,43.2,26.8,30.20,NNW,333,5.0,11.0,52,0.00,,,0.00,meteohub,2013-11-19 15:32:00,
2013-11-19 10:37:00,43.5,26.6,30.19,NNW,340,3.0,11.0,51,0.00,,,0.00,meteohub,2013-11-19 15:37:00,
2013-11-19 10:42:00,44.1,27.1,30.19,NNW,330,5.0,9.0,51,0.00,,,0.00,meteohub,2013-11-19 15:42:00,
2013-11-19 10:47:00,44.1,27.1,30.19,NW,319,5.0,14.0,51,0.00,,,0.00,meteohub,2013-11-19 15:47:00,
2013-11-19 10:52:00,44.4,27.0,30.19,WNW,288,2.0,14.0,50,0.00,,,0.00,meteohub,2013-11-19 15:52:00,
2013-11-19 10:57:00,44.4,27.0,30.19,NW,311,4.0,14.0,50,0.00,,,0.00,meteohub,2013-11-19 15:57:00,
2013-11-19 11:02:00,43.9,26.4,30.19,East,86,5.0,10.0,50,0.00,,,0.00,meteohub,2013-11-19 16:02:00,
2013-11-19 11:07:00,44.1,27.1,30.20,NNW,327,6.0,10.0,51,0.00,,,0.00,meteohub,2013-11-19 16:07:00,
2013-11-19 11:12:00,44.2,26.8,30.19,NW,326,5.0,11.0,50,0.00,,,0.00,meteohub,2013-11-19 16:12:00,
2013-11-19 11:17:00,44.4,27.0,30.19,WNW,301,9.0,11.0,50,0.00,,,0.00,meteohub,2013-11-19 16:17:00,
2013-11-19 11:22:00,44.8,27.3,30.19,NW,314,3.0,12.0,50,0.00,,,0.00,meteohub,2013-11-19 16:22:00,
2013-11-19 11:27:00,44.4,27.5,30.19,NW,309,5.0,12.0,51,0.00,,,0.00,meteohub,2013-11-19 16:27:00,
2013-11-19 11:32:00,44.1,26.6,30.19,NW,318,3.0,12.0,50,0.00,,,0.00,meteohub,2013-11-19 16:32:00,
2013-11-19 11:37:00,44.2,27.7,30.19,WNW,300,4.0,8.0,52,0.00,,,0.00,meteohub,2013-11-19 16:37:00,
2013-11-19 11:42:00,45.1,27.7,30.20,NNW,340,3.0,13.0,50,0.00,,,0.00,meteohub,2013-11-19 16:42:00,
2013-11-19 11:47:00,45.0,27.5,30.20,NNW,333,5.0,13.0,50,0.00,,,0.00,meteohub,2013-11-19 16:47:00,
2013-11-19 11:52:00,45.0,27.0,30.20,North,349,4.0,13.0,49,0.00,,,0.00,meteohub,2013-11-19 16:52:00,
2013-11-19 11:57:00,45.3,27.9,30.20,ENE,57,7.0,13.0,50,0.00,,,0.00,meteohub,2013-11-19 16:57:00,
2013-11-19 12:02:00,45.3,27.3,30.20,NW,323,8.0,12.0,49,0.00,,,0.00,meteohub,2013-11-19 17:02:00,
2013-11-19 12:07:00,45.1,27.1,30.20,NNW,332,4.0,11.0,49,0.00,,,0.00,meteohub,2013-11-19 17:07:00,
2013-11-19 12:12:00,45.1,27.1,30.20,NW,320,4.0,10.0,49,0.00,,,0.00,meteohub,2013-11-19 17:12:00,
2013-11-19 12:17:00,44.4,26.4,30.21,NW,304,5.0,14.0,49,0.00,,,0.00,meteohub,2013-11-19 17:17:00,
2013-11-19 12:22:00,44.8,27.7,30.21,WNW,288,5.0,14.0,51,0.00,,,0.00,meteohub,2013-11-19 17:22:00,
2013-11-19 12:27:00,44.8,27.3,30.20,NW,315,3.0,14.0,50,0.00,,,0.00,meteohub,2013-11-19 17:27:00,
2013-11-19 12:32:00,45.0,27.5,30.20,West,278,6.0,14.0,50,0.00,,,0.00,meteohub,2013-11-19 17:32:00,
2013-11-19 12:37:00,44.6,27.1,30.20,NNW,346,2.0,14.0,50,0.00,,,0.00,meteohub,2013-11-19 17:37:00,
2013-11-19 12:42:00,44.1,27.1,30.21,NW,323,4.0,12.0,51,0.00,,,0.00,meteohub,2013-11-19 17:42:00,
2013-11-19 12:47:00,44.1,27.1,30.21,NW,304,5.0,12.0,51,0.00,,,0.00,meteohub,2013-11-19 17:47:00,
2013-11-19 13:11:00,44.2,27.3,30.21,NW,306,8.0,12.0,51,0.00,,,0.00,meteohub,2013-11-19 18:11:00,
2013-11-19 13:16:00,44.8,27.7,30.20,NW,304,4.0,16.0,51,0.00,,,0.00,meteohub,2013-11-19 18:16:00,
2013-11-19 13:21:00,45.0,27.5,30.20,WNW,302,4.0,16.0,50,0.00,,,0.00,meteohub,2013-11-19 18:21:00,
2013-11-19 13:26:00,45.3,27.9,30.20,NW,304,7.0,16.0,50,0.00,,,0.00,meteohub,2013-11-19 18:26:00,
2013-11-19 13:31:00,45.5,27.5,30.20,SE,130,2.0,12.0,49,0.00,,,0.00,meteohub,2013-11-19 18:31:00,
2013-11-19 13:37:00,45.0,27.0,30.21,North,10,5.0,12.0,49,0.00,,,0.00,meteohub,2013-11-19 18:37:00,
2013-11-19 13:42:00,44.8,26.2,30.21,NW,309,6.0,10.0,48,0.00,,,0.00,meteohub,2013-11-19 18:42:00,
2013-11-19 13:47:00,44.8,26.8,30.21,NW,304,5.0,11.0,49,0.00,,,0.00,meteohub,2013-11-19 18:47:00,
2013-11-19 13:52:00,45.1,26.6,30.21,NW,307,6.0,11.0,48,0.00,,,0.00,meteohub,2013-11-19 18:52:00,
2013-11-19 13:57:00,45.1,26.6,30.20,North,8,5.0,11.0,48,0.00,,,0.00,meteohub,2013-11-19 18:57:00,
2013-11-19 14:02:00,45.3,26.8,30.20,NNW,329,13.0,13.0,48,0.00,,,0.00,meteohub,2013-11-19 19:02:00,
2013-11-19 14:07:00,45.0,26.4,30.21,West,268,10.0,16.0,48,0.00,,,0.00,meteohub,2013-11-19 19:07:00,
2013-11-19 14:08:00,45.0,26.4,30.21,NW,323,4.0,16.0,48,0.00,,,0.00,meteohub,2013-11-19 19:08:00,
2013-11-19 14:13:00,45.1,26.6,30.21,NW,313,4.0,16.0,48,0.00,,,0.00,meteohub,2013-11-19 19:13:00,
2013-11-19 14:18:00,45.0,26.4,30.21,NNW,338,2.0,16.0,48,0.00,,,0.00,meteohub,2013-11-19 19:18:00,
2013-11-19 14:23:00,45.0,26.4,30.21,NNW,334,12.0,14.0,48,0.00,,,0.00,meteohub,2013-11-19 19:23:00,
2013-11-19 14:28:00,45.0,26.4,30.21,NNW,335,5.0,14.0,48,0.00,,,0.00,meteohub,2013-11-19 19:28:00,
2013-11-19 14:33:00,45.1,27.1,30.21,NNW,348,6.0,14.0,49,0.00,,,0.00,meteohub,2013-11-19 19:33:00,
2013-11-19 14:38:00,45.0,27.0,30.21,WNW,301,9.0,14.0,49,0.00,,,0.00,meteohub,2013-11-19 19:38:00,
2013-11-19 14:43:00,44.8,26.8,30.22,NNW,327,2.0,12.0,49,0.00,,,0.00,meteohub,2013-11-19 19:43:00,
2013-11-19 14:48:00,45.0,27.0,30.22,North,5,11.0,12.0,49,0.00,,,0.00,meteohub,2013-11-19 19:48:00,
2013-11-19 14:53:00,44.6,26.6,30.22,NNW,333,6.0,16.0,49,0.00,,,0.00,meteohub,2013-11-19 19:53:00,
2013-11-19 14:58:00,44.4,25.9,30.22,NW,311,5.0,16.0,48,0.00,,,0.00,meteohub,2013-11-19 19:58:00,
2013-11-19 15:03:00,44.2,25.3,30.22,NNE,13,4.0,16.0,47,0.00,,,0.00,meteohub,2013-11-19 20:03:00,
2013-11-19 15:08:00,44.2,25.3,30.23,NNW,347,7.0,15.0,47,0.00,,,0.00,meteohub,2013-11-19 20:08:00,
2013-11-19 15:14:00,44.1,25.2,30.23,NNW,347,4.0,14.0,47,0.00,,,0.00,meteohub,2013-11-19 20:14:00,
2013-11-19 15:19:00,44.1,24.6,30.23,NNW,333,3.0,14.0,46,0.00,,,0.00,meteohub,2013-11-19 20:19:00,
2013-11-19 15:24:00,44.1,25.2,30.23,ENE,69,4.0,13.0,47,0.00,,,0.00,meteohub,2013-11-19 20:24:00,
2013-11-19 15:29:00,44.1,25.2,30.23,WSW,255,2.0,13.0,47,0.00,,,0.00,meteohub,2013-11-19 20:29:00,
2013-11-19 15:34:00,43.9,25.0,30.23,NW,315,2.0,13.0,47,0.00,,,0.00,meteohub,2013-11-19 20:34:00,
2013-11-19 15:39:00,43.9,25.0,30.24,NW,307,1.0,11.0,47,0.00,,,0.00,meteohub,2013-11-19 20:39:00,
2013-11-19 15:44:00,43.9,24.4,30.24,NNW,342,4.0,11.0,46,0.00,,,0.00,meteohub,2013-11-19 20:44:00,
2013-11-19 15:49:00,43.5,24.1,30.24,NW,306,3.0,11.0,46,0.00,,,0.00,meteohub,2013-11-19 20:49:00,
2013-11-19 15:54:00,43.2,23.7,30.25,North,352,1.0,10.0,46,0.00,,,0.00,meteohub,2013-11-19 20:54:00,
2013-11-19 15:59:00,43.0,24.1,30.25,NNE,27,1.0,11.0,47,0.00,,,0.00,meteohub,2013-11-19 20:59:00,
2013-11-19 16:04:00,42.8,23.9,30.25,NW,326,2.0,11.0,47,0.00,,,0.00,meteohub,2013-11-19 21:04:00,
2013-11-19 16:09:00,42.6,24.3,30.26,East,94,0.0,10.0,48,0.00,,,0.00,meteohub,2013-11-19 21:09:00,
2013-11-19 16:14:00,42.4,24.6,30.26,North,5,3.0,8.0,49,0.00,,,0.00,meteohub,2013-11-19 21:14:00,
2013-11-19 16:19:00,42.1,24.3,30.26,East,85,6.0,8.0,49,0.00,,,0.00,meteohub,2013-11-19 21:19:00,
2013-11-19 16:24:00,41.7,23.9,30.27,WNW,300,1.0,9.0,49,0.00,,,0.00,meteohub,2013-11-19 21:24:00,
2013-11-19 16:29:00,41.5,23.7,30.27,East,82,2.0,10.0,49,0.00,,,0.00,meteohub,2013-11-19 21:29:00,
2013-11-19 16:35:00,41.2,23.9,30.27,NE,34,1.0,10.0,50,0.00,,,0.00,meteohub,2013-11-19 21:35:00,
2013-11-19 16:40:00,40.8,23.5,30.27,NNE,30,4.0,10.0,50,0.00,,,0.00,meteohub,2013-11-19 21:40:00,
2013-11-19 16:45:00,40.6,23.9,30.27,NW,311,0.0,10.0,51,0.00,,,0.00,meteohub,2013-11-19 21:45:00,
2013-11-19 16:50:00,40.3,23.5,30.28,East,92,0.0,10.0,51,0.00,,,0.00,meteohub,2013-11-19 21:50:00,
2013-11-19 16:55:00,40.1,23.4,30.28,NNE,30,5.0,8.0,51,0.00,,,0.00,meteohub,2013-11-19 21:55:00,
2013-11-19 17:00:00,39.9,23.7,30.28,North,354,1.0,8.0,52,0.00,,,0.00,meteohub,2013-11-19 22:00:00,
2013-11-19 17:05:00,39.7,23.5,30.29,NNE,20,4.0,9.0,52,0.00,,,0.00,meteohub,2013-11-19 22:05:00,
2013-11-19 17:10:00,39.6,23.4,30.29,ENE,71,4.0,9.0,52,0.00,,,0.00,meteohub,2013-11-19 22:10:00,
2013-11-19 17:15:00,39.6,23.4,30.30,East,83,0.0,9.0,52,0.00,,,0.00,meteohub,2013-11-19 22:15:00,
2013-11-19 17:20:00,39.0,23.4,30.30,SE,136,0.0,5.0,53,0.00,,,0.00,meteohub,2013-11-19 22:20:00,
2013-11-19 17:25:00,38.8,23.5,30.30,SE,134,0.0,5.0,54,0.00,,,0.00,meteohub,2013-11-19 22:25:00,
2013-11-19 17:30:00,38.7,23.4,30.31,NE,45,0.0,5.0,54,0.00,,,0.00,meteohub,2013-11-19 22:30:00,
2013-11-19 17:35:00,38.8,23.2,30.31,NNW,347,1.0,8.0,53,0.00,,,0.00,meteohub,2013-11-19 22:35:00,
2013-11-19 17:40:00,38.5,23.4,30.31,NW,326,4.0,8.0,54,0.00,,,0.00,meteohub,2013-11-19 22:40:00,
2013-11-19 17:45:00,38.7,23.4,30.31,NNE,25,4.0,8.0,54,0.00,,,0.00,meteohub,2013-11-19 22:45:00,
2013-11-19 17:51:00,38.5,23.4,30.31,NNW,338,4.0,6.0,54,0.00,,,0.00,meteohub,2013-11-19 22:51:00,
2013-11-19 17:56:00,38.5,23.4,30.31,NE,39,12.0,12.0,54,0.00,,,0.00,meteohub,2013-11-19 22:56:00,
2013-11-19 18:01:00,38.5,23.4,30.31,NNW,335,7.0,12.0,54,0.00,,,0.00,meteohub,2013-11-19 23:01:00,
2013-11-19 18:06:00,38.3,23.2,30.32,NNW,339,2.0,12.0,54,0.00,,,0.00,meteohub,2013-11-19 23:06:00,
2013-11-19 18:11:00,38.1,23.0,30.32,NW,319,5.0,12.0,54,0.00,,,0.00,meteohub,2013-11-19 23:11:00,
2013-11-19 18:16:00,38.1,23.0,30.32,NNW,333,3.0,7.0,54,0.00,,,0.00,meteohub,2013-11-19 23:16:00,
2013-11-19 18:21:00,38.1,23.4,30.32,NNW,344,2.0,9.0,55,0.00,,,0.00,meteohub,2013-11-19 23:21:00,
2013-11-19 18:26:00,37.9,23.2,30.32,North,356,4.0,10.0,55,0.00,,,0.00,meteohub,2013-11-19 23:26:00,
2013-11-19 18:31:00,37.9,23.2,30.32,NW,315,3.0,10.0,55,0.00,,,0.00,meteohub,2013-11-19 23:31:00,
2013-11-19 18:36:00,37.8,23.0,30.33,NE,44,2.0,6.0,55,0.00,,,0.00,meteohub,2013-11-19 23:36:00,
2013-11-19 18:41:00,37.6,23.4,30.33,NW,324,1.0,6.0,56,0.00,,,0.00,meteohub,2013-11-19 23:41:00,
2013-11-19 18:46:00,37.4,23.2,30.33,NW,323,1.0,6.0,56,0.00,,,0.00,meteohub,2013-11-19 23:46:00,
2013-11-19 18:51:00,37.2,23.0,30.33,NE,46,2.0,4.0,56,0.00,,,0.00,meteohub,2013-11-19 23:51:00,
2013-11-19 18:57:00,37.0,23.2,30.33,North,6,1.0,6.0,57,0.00,,,0.00,meteohub,2013-11-19 23:57:00,
2013-11-19 19:02:00,37.0,23.2,30.34,NW,314,1.0,6.0,57,0.00,,,0.00,meteohub,2013-11-20 00:02:00,
2013-11-19 19:07:00,36.9,23.0,30.34,NNE,31,0.0,5.0,57,0.00,,,0.00,meteohub,2013-11-20 00:07:00,
2013-11-19 19:12:00,36.7,23.4,30.34,NW,326,1.0,4.0,58,0.00,,,0.00,meteohub,2013-11-20 00:12:00,
2013-11-19 19:17:00,36.5,23.2,30.34,NE,39,0.0,4.0,58,0.00,,,0.00,meteohub,2013-11-20 00:17:00,
2013-11-19 19:22:00,36.3,23.0,30.34,NNE,30,0.0,4.0,58,0.00,,,0.00,meteohub,2013-11-20 00:22:00,
2013-11-19 19:27:00,36.1,23.2,30.35,ESE,103,1.0,4.0,59,0.00,,,0.00,meteohub,2013-11-20 00:27:00,
2013-11-19 19:32:00,36.0,23.0,30.35,ENE,72,0.0,4.0,59,0.00,,,0.00,meteohub,2013-11-20 00:32:00,
2013-11-19 19:37:00,35.8,22.8,30.35,ENE,60,1.0,4.0,59,0.00,,,0.00,meteohub,2013-11-20 00:37:00,
2013-11-19 19:42:00,35.4,23.0,30.35,ENE,72,0.0,4.0,60,0.00,,,0.00,meteohub,2013-11-20 00:42:00,
2013-11-19 19:47:00,35.1,23.0,30.35,NW,313,0.0,3.0,61,0.00,,,0.00,meteohub,2013-11-20 00:47:00,
2013-11-19 19:52:00,34.7,23.0,30.36,NW,314,0.0,3.0,62,0.00,,,0.00,meteohub,2013-11-20 00:52:00,
2013-11-19 19:57:00,34.5,22.8,30.36,SE,145,0.0,2.0,62,0.00,,,0.00,meteohub,2013-11-20 00:57:00,
2013-11-19 20:02:00,34.2,22.5,30.36,SE,143,0.0,1.0,62,0.00,,,0.00,meteohub,2013-11-20 01:02:00,
2013-11-19 20:07:00,33.8,22.5,30.37,SE,144,0.0,1.0,63,0.00,,,0.00,meteohub,2013-11-20 01:07:00,
2013-11-19 20:12:00,33.6,22.8,30.37,SE,144,0.0,1.0,64,0.00,,,0.00,meteohub,2013-11-20 01:12:00,
2013-11-19 20:17:00,32.7,22.6,30.37,SE,144,0.0,0.0,66,0.00,,,0.00,meteohub,2013-11-20 01:17:00,
2013-11-19 20:22:00,31.8,22.8,30.37,SE,144,0.0,1.0,69,0.00,,,0.00,meteohub,2013-11-20 01:22:00,
2013-11-19 20:27:00,31.3,22.6,30.38,SE,143,0.0,1.0,70,0.00,,,0.00,meteohub,2013-11-20 01:27:00,
2013-11-19 20:32:00,30.9,22.3,30.38,SE,144,0.0,1.0,70,0.00,,,0.00,meteohub,2013-11-20 01:32:00,
2013-11-19 20:37:00,30.6,22.6,30.38,SE,143,0.0,0.0,72,0.00,,,0.00,meteohub,2013-11-20 01:37:00,
2013-11-19 20:42:00,30.6,22.6,30.38,SE,144,0.0,0.0,72,0.00,,,0.00,meteohub,2013-11-20 01:42:00,
2013-11-19 20:47:00,29.8,22.6,30.39,SE,143,0.0,0.0,74,0.00,,,0.00,meteohub,2013-11-20 01:47:00,
2013-11-19 20:52:00,29.5,22.5,30.39,SE,143,0.0,0.0,75,0.00,,,0.00,meteohub,2013-11-20 01:52:00,
2013-11-19 20:57:00,29.5,22.8,30.40,SSW,204,0.0,0.0,76,0.00,,,0.00,meteohub,2013-11-20 01:57:00,
2013-11-19 21:02:00,29.5,22.8,30.40,SSW,204,0.0,2.0,76,0.00,,,0.00,meteohub,2013-11-20 02:02:00,
2013-11-19 21:07:00,29.5,22.8,30.40,SSW,204,0.0,2.0,76,0.00,,,0.00,meteohub,2013-11-20 02:07:00,
2013-11-19 21:12:00,29.1,22.8,30.40,NNW,342,1.0,2.0,77,0.00,,,0.00,meteohub,2013-11-20 02:12:00,
2013-11-19 21:17:00,28.8,22.8,30.40,North,9,1.0,2.0,78,0.00,,,0.00,meteohub,2013-11-20 02:17:00,
2013-11-19 21:22:00,28.6,22.8,30.40,NNE,26,0.0,2.0,79,0.00,,,0.00,meteohub,2013-11-20 02:22:00,
2013-11-19 21:27:00,28.2,22.6,30.40,SE,142,1.0,2.0,79,0.00,,,0.00,meteohub,2013-11-20 02:27:00,
2013-11-19 21:32:00,28.6,22.8,30.41,SE,143,0.0,1.0,79,0.00,,,0.00,meteohub,2013-11-20 02:32:00,
2013-11-19 21:37:00,28.8,22.8,30.41,South,169,0.0,1.0,78,0.00,,,0.00,meteohub,2013-11-20 02:37:00,
2013-11-19 21:42:00,29.1,23.2,30.42,SSW,205,1.0,2.0,78,0.00,,,0.00,meteohub,2013-11-20 02:42:00,
2013-11-19 21:47:00,29.7,23.0,30.42,WSW,249,1.0,3.0,76,0.00,,,0.00,meteohub,2013-11-20 02:47:00,
2013-11-19 21:52:00,30.0,23.0,30.42,NNE,13,1.0,3.0,75,0.00,,,0.00,meteohub,2013-11-20 02:52:00,
2013-11-19 21:57:00,29.7,22.6,30.42,NNW,338,0.0,3.0,75,0.00,,,0.00,meteohub,2013-11-20 02:57:00,
2013-11-19 22:02:00,29.1,22.8,30.42,ENE,77,2.0,3.0,77,0.00,,,0.00,meteohub,2013-11-20 03:02:00,
2013-11-19 22:07:00,29.7,23.4,30.42,ENE,66,2.0,3.0,77,0.00,,,0.00,meteohub,2013-11-20 03:07:00,
2013-11-19 22:12:00,30.9,23.4,30.42,ENE,64,2.0,4.0,73,0.00,,,0.00,meteohub,2013-11-20 03:12:00,
2013-11-19 22:17:00,31.3,23.4,30.42,NW,319,0.0,4.0,72,0.00,,,0.00,meteohub,2013-11-20 03:17:00,
2013-11-19 22:22:00,31.3,23.0,30.42,NNW,333,0.0,4.0,71,0.00,,,0.00,meteohub,2013-11-20 03:22:00,
2013-11-19 22:27:00,31.3,23.0,30.42,NNW,346,1.0,3.0,71,0.00,,,0.00,meteohub,2013-11-20 03:27:00,
2013-11-19 22:32:00,31.3,23.0,30.42,NNW,330,1.0,3.0,71,0.00,,,0.00,meteohub,2013-11-20 03:32:00,
2013-11-19 22:37:00,31.3,23.0,30.42,North,353,0.0,3.0,71,0.00,,,0.00,meteohub,2013-11-20 03:37:00,
2013-11-19 22:42:00,31.5,22.8,30.43,ESE,111,0.0,3.0,70,0.00,,,0.00,meteohub,2013-11-20 03:42:00,
2013-11-19 22:47:00,31.5,22.8,30.43,ESE,111,0.0,1.0,70,0.00,,,0.00,meteohub,2013-11-20 03:47:00,
2013-11-19 22:52:00,31.5,22.8,30.43,ESE,111,0.0,1.0,70,0.00,,,0.00,meteohub,2013-11-20 03:52:00,
2013-11-19 22:57:00,31.1,22.5,30.44,ESE,110,0.0,1.0,70,0.00,,,0.00,meteohub,2013-11-20 03:57:00,
2013-11-19 23:02:00,30.6,22.3,30.44,ESE,109,0.0,1.0,71,0.00,,,0.00,meteohub,2013-11-20 04:02:00,
2013-11-19 23:07:00,31.1,22.8,30.44,ESE,104,0.0,2.0,71,0.00,,,0.00,meteohub,2013-11-20 04:07:00,
2013-11-19 23:12:00,31.6,23.0,30.44,NE,49,1.0,3.0,70,0.00,,,0.00,meteohub,2013-11-20 04:12:00,
2013-11-19 23:17:00,32.2,22.8,30.45,NE,51,0.0,3.0,68,0.00,,,0.00,meteohub,2013-11-20 04:17:00,
2013-11-19 23:22:00,32.4,23.0,30.44,NE,49,0.0,3.0,68,0.00,,,0.00,meteohub,2013-11-20 04:22:00,
2013-11-19 23:27:00,32.2,22.8,30.45,NE,45,0.0,3.0,68,0.00,,,0.00,meteohub,2013-11-20 04:27:00,
2013-11-19 23:32:00,31.6,22.3,30.45,NE,47,0.0,3.0,68,0.00,,,0.00,meteohub,2013-11-20 04:32:00,
2013-11-19 23:37:00,31.3,22.3,30.45,North,351,0.0,1.0,69,0.00,,,0.00,meteohub,2013-11-20 04:37:00,
2013-11-19 23:42:00,31.1,22.5,30.45,WNW,283,0.0,2.0,70,0.00,,,0.00,meteohub,2013-11-20 04:42:00,
2013-11-19 23:47:00,30.9,22.3,30.45,NNW,339,0.0,2.0,70,0.00,,,0.00,meteohub,2013-11-20 04:47:00,
2013-11-19 23:52:00,30.7,22.5,30.45,NNW,338,1.0,2.0,71,0.00,,,0.00,meteohub,2013-11-20 04:52:00,
2013-11-19 23:57:00,30.9,22.3,30.45,NW,304,0.0,1.0,70,0.00,,,0.00,meteohub,2013-11-20 04:57:00,